Probability
3 3 3 0 0 0 0 0 0 0 0 0 0 0 0 0 0 0 0 0 0 0 0 0 0 0 0 0 0 0 0 0 0 0 0 0 0 0 0 0 0 0 0
0 0 0 0 0 0 0 0 0 0 0 0 0 0 0 0 0 0 0 0 0 0 0 0 0 0 0 0 0 0 0 0 0 0 0 0 0 0 0 0 0 0 0
0 0 0 0 0 0 0 0 0 0 0 0 0 0 0 0 0 0 0 0 0 0 0 0 0 0 0 0 0 0 0 0 0 0 0 0 0 0 0 0 0 0 0
0 0 0 0 0 0 0 0 0 0 0 0 0 0 0 0 0 0 0 0 0 0 0 0 0 0 0 0 0 0 0 0 0 0 0 0 0 0 0 0 0 0 0
0 0 0 0 0 0 0 0 0 0 0 0 0 0 0 0 0 0 0 0 0 0 0 0 0 0 0 0 0 0 0 0 0 0 0 0 0 0 0 0 0 0 0
0 0 0 0 0 0 0 0 0 0 0 0 0 0 0 0 0 0 0 0 0 0 0 0 0 0 0 0 0 0 0 0 0 0 0 0 0 0 0 0 0 0 0
0 0 0 0 0 0 0 0 0 0 0 0 0 0 0 0 0 0 0 0 0 0 0 0 0 0 0 0 0 0 0 0 0 0 0 0 0 0 0 0 0 0 0
0 0 0 0 0 0 0 0 0 0 0 0 0 0 0 0 0 0 0 0 0 0 0 0 0 0 0 0 0 0 0 0 0 0 0 0 0 0 0 0 0 0 0
0 0 0 0 0 0 0 0 0 0 0 0 0 0 0 0 0 0 0 0 0 0 0 0 0 0 0 0 0 0 0 0 0 0 0 0 0 0 0 0 0 0 0
0 0 0 0 0 0 0 0 0 0 0 0 0 0 0 0 0 0 0 0 0 0 0 0 0 0 0 0 0 0 0 0 0 0 0 0 0 0 0 0 0 0 0
0 0 0 0 0 0 0 0 0 0 0 0 0 0 0 0 0 0 0 0 0 0 0 0 0 0 0 0 0 0 0 0 0 0 0 0 0 0 0 0 0 0 0
0 0 0 0 0 0 0 0 0 0 0 0 0 0 0 0 0 0 0 0 0 0 0 0 0 0 0 0 0 0 0 0 0 0 0 0 0 0 0 0 0 0 0
0 0 0 0 0 0 0 0 0 0 0 0 0 0 0 0 0 0 0 0 0 0 0 0 0 0 0 0 0 0 0 0 0 0 0 0 0 0 0 0 0 0 0
0 0 0 0 0 0 0 0 0 0 0 0 0 0 0 0 0 0 0 0 0 0 0 0 0 0 0 0 0 0 0 0 0 0 0 0 0 0 0 0 0 0 0
0 0 0 0 0 0 0 0 0 0 0 0 0 0 0 0 0 0 0 0 0 0 0 0 0 0 0 0 0 0 0 0 0 0 0 0 0 0 0 0 0 0 0
0 0 0 0 0 0 0 0 0 0 0 0 0 0 0 0 0 0 0 0 0 0 0 0 0 0 0 0 0 0 0 0 0 0 0 0 0 0 0 0 0 0 0
0 0 0 0 0 0 0 0 0 0 0 0 0 0 0 0 0 0 0 0 0 0 0 0 0 0 0 0 0 0 0 0 0 0 0 0 0 0 0 0 0 0 0
0 0 0 0 0 0 0 0 0 0 0 0 0 0 0 0 0 0 0 0 0 0 0 0 0 0 0 0 0 0 0 0 0 0 0 0 0 0 0 0 0 0 0
0 0 0 0 0 0 0 0 0 0 0 0 0 0 0 0 0 0 0 0 0 0 0 0 0 0 0 0 0 0 0 0 0 0 0 0 0 0 0 0 0 0 0
0 0 0 0 0 0 0 0 0 0 0 0 0 0 0 0 0 0 0 0 0 0 0 0 0 0 0 0 0 0 0 0 0 0 0 0 0 0 0 0 0 0 0
0 0 0 0 0 0 0 0 0 0 0 0 0 0 0 0 0 0 0 0 0 0 0 0 0 0 0 0 0 0 0 0 0 0 0 0 0 0 0 0 0 0 0
0 0 0 0 0 0 0 0 0 0 0 0 0 0 0 0 0 0 0 0 0 0 0 0 0 0 0 0 0 0 0 0 0 0 0 0 0 0 0 0 0 0 0
0 0 0 0 0 0 0 0 0 0 0 0 0 0 0 0 0 0 0 0 0 0 0 0 0 0 0 0 0 0 0 0 0 0 0 0 0 0 0 0 0 0 0
0 0 0 0 0 0 0 0 0 0 0 0 0 0 0 0 0 0 0 0 0 0 0 0 0 0 0 0 0 0 0 0 0 0 0 0 0 0 0 0 0 0 0
0 0 0 0 0 0 0 0 0 0 0 0 0 0 0 0 0 0 0 0 0 0 0 0 0 0 0 0 0 0 0 0 0 0 0 0 0 0 0 0 0 0 0
0 0 0 0 0 0 0 0 0 0 0 0 0 0 0 0 0 0 0 0 0 0 0 0 0 0 0 0 0 0 0 0 0 0 0 0 0 0 0 0 0 0 0
Height
5839 5837 5834 5831 5827 5823 5819 5815 5811 5807 5802 5797 5792 5787 5783 5778 5774 5770 5766 5762 5759 5756 5753 5750 5748 5746 5745 5744 5744 5744 5745 5747 5750 5752 5754 5757 5760 5765 5769 5773 5777 5781 5785
5837 5834 5831 5828 5824 5820 5816 5812 5807 5802 5798 5792 5787 5782 5777 5772 5767 5762 5758 5754 5750 5747 5743 5741 5738 5736 5734 5733 5733 5733 5733 5734 5737 5739 5741 5743 5747 5751 5756 5761 5765 5769 5774
5834 5832 5828 5825 5821 5817 5812 5808 5803 5798 5793 5787 5782 5776 5771 5765 5760 5755 5750 5746 5742 5738 5734 5731 5728 5726 5724 5722 5721 5721 5721 5722 5724 5726 5728 5730 5734 5738 5743 5748 5753 5758 5762
5831 5828 5825 5821 5817 5813 5808 5803 5798 5793 5788 5782 5776 5771 5765 5759 5753 5748 5743 5738 5733 5729 5725 5722 5719 5716 5713 5712 5710 5709 5709 5710 5711 5714 5716 5718 5721 5724 5729 5735 5740 5746 5751
5828 5825 5821 5817 5813 5808 5803 5798 5793 5788 5782 5776 5770 5764 5759 5753 5747 5741 5736 5730 5725 5721 5716 5713 5709 5706 5703 5701 5700 5699 5698 5699 5700 5702 5704 5706 5709 5712 5717 5722 5728 5733 5739
5823 5820 5817 5813 5808 5804 5799 5793 5788 5782 5776 5770 5764 5758 5752 5746 5740 5734 5728 5723 5718 5713 5708 5704 5700 5697 5694 5692 5690 5689 5688 5688 5689 5690 5692 5695 5697 5700 5705 5709 5715 5721 5728
5819 5816 5812 5808 5803 5799 5794 5788 5783 5777 5771 5764 5758 5751 5745 5739 5733 5726 5720 5715 5710 5705 5700 5696 5692 5688 5685 5683 5681 5679 5678 5677 5678 5679 5681 5684 5686 5690 5694 5699 5703 5709 5715
5814 5810 5807 5802 5798 5793 5788 5782 5777 5771 5765 5758 5751 5745 5738 5732 5726 5719 5713 5707 5702 5697 5692 5687 5683 5679 5676 5673 5671 5670 5668 5668 5668 5669 5671 5673 5675 5678 5682 5687 5692 5698 5704
5809 5805 5801 5797 5792 5787 5782 5776 5770 5764 5758 5752 5745 5738 5732 5725 5719 5712 5706 5700 5694 5689 5684 5679 5675 5671 5667 5665 5663 5661 5659 5658 5658 5659 5661 5663 5665 5668 5672 5676 5681 5687 5692
5803 5799 5795 5790 5785 5780 5775 5770 5764 5758 5751 5745 5738 5732 5725 5718 5711 5705 5698 5692 5687 5681 5676 5671 5666 5662 5659 5656 5653 5651 5650 5649 5649 5650 5651 5653 5655 5658 5661 5665 5670 5675 5681
5797 5793 5788 5784 5779 5774 5768 5763 5757 5751 5745 5738 5732 5725 5718 5711 5704 5698 5691 5685 5679 5673 5668 5663 5659 5654 5651 5647 5644 5642 5641 5640 5640 5640 5641 5643 5645 5648 5651 5655 5659 5664 5670
5791 5786 5782 5777 5772 5767 5761 5756 5750 5744 5737 5731 5724 5717 5710 5704 5697 5690 5684 5678 5672 5666 5661 5656 5651 5647 5643 5639 5636 5634 5632 5630 5630 5630 5631 5633 5635 5637 5640 5644 5648 5653 5659
5784 5780 5775 5770 5765 5760 5754 5749 5742 5736 5730 5724 5717 5710 5703 5696 5689 5683 5676 5670 5665 5659 5654 5649 5644 5640 5636 5632 5629 5626 5623 5621 5621 5621 5621 5623 5624 5627 5630 5633 5638 5643 5648
5777 5773 5768 5763 5758 5752 5747 5741 5735 5729 5722 5716 5709 5703 5696 5689 5682 5675 5669 5663 5658 5652 5647 5642 5637 5633 5629 5625 5621 5618 5615 5613 5612 5612 5612 5613 5614 5616 5619 5623 5627 5632 5638
5769 5765 5760 5755 5750 5745 5739 5733 5727 5721 5714 5708 5702 5695 5688 5682 5675 5668 5662 5656 5651 5645 5640 5635 5631 5626 5622 5618 5614 5611 5608 5606 5605 5604 5604 5604 5605 5607 5610 5612 5616 5621 5627
5761 5757 5752 5747 5742 5737 5731 5725 5719 5713 5706 5700 5693 5687 5680 5674 5667 5661 5655 5649 5644 5639 5634 5629 5624 5620 5616 5612 5608 5605 5602 5600 5598 5597 5596 5596 5597 5598 5600 5603 5607 5611 5616
5753 5748 5744 5739 5734 5728 5723 5717 5711 5705 5698 5692 5685 5679 5672 5666 5659 5653 5648 5642 5637 5632 5627 5623 5618 5614 5610 5606 5602 5599 5596 5594 5592 5590 5589 5589 5589 5590 5592 5595 5598 5602 5607
5744 5739 5735 5730 5725 5719 5714 5708 5702 5696 5690 5684 5677 5671 5665 5658 5652 5646 5641 5635 5630 5626 5621 5617 5613 5609 5605 5601 5597 5594 5591 5589 5586 5585 5583 5582 5582 5583 5585 5587 5590 5594 5598
5735 5730 5726 5721 5716 5710 5705 5699 5693 5687 5681 5675 5669 5663 5657 5651 5645 5639 5634 5629 5624 5620 5616 5611 5607 5604 5600 5596 5593 5590 5587 5584 5582 5579 5578 5577 5577 5577 5578 5580 5583 5586 5590
5725 5721 5716 5711 5706 5701 5695 5690 5684 5678 5672 5666 5661 5655 5649 5643 5638 5632 5627 5623 5618 5614 5610 5606 5603 5599 5596 5592 5588 5585 5583 5580 5578 5575 5574 5572 5572 5572 5573 5574 5577 5580 5583
5715 5710 5706 5701 5696 5690 5685 5680 5674 5669 5663 5657 5652 5646 5640 5635 5630 5625 5621 5616 5612 5608 5605 5601 5598 5595 5591 5587 5584 5581 5578 5576 5574 5572 5570 5569 5568 5568 5569 5570 5572 5574 5578
5704 5700 5695 5690 5685 5680 5674 5669 5664 5658 5653 5648 5642 5637 5632 5627 5623 5618 5614 5610 5606 5603 5599 5596 5593 5590 5586 5583 5580 5577 5574 5572 5570 5568 5567 5566 5565 5565 5565 5566 5567 5570 5573
5693 5688 5684 5679 5674 5669 5663 5658 5653 5648 5642 5637 5632 5628 5623 5619 5615 5611 5607 5603 5600 5597 5593 5590 5587 5584 5581 5578 5575 5573 5570 5568 5566 5565 5563 5562 5562 5561 5561 5562 5563 5565 5568
5681 5676 5672 5667 5662 5657 5652 5647 5642 5637 5632 5627 5623 5618 5614 5610 5607 5603 5600 5597 5593 5590 5588 5585 5582 5579 5576 5574 5571 5569 5566 5564 5562 5561 5560 5559 5558 5558 5558 5558 5559 5561 5563
5668 5663 5658 5654 5649 5644 5639 5635 5630 5625 5621 5616 5613 5609 5605 5601 5598 5595 5593 5590 5587 5584 5582 5579 5576 5574 5571 5569 5567 5565 5563 5561 5559 5558 5557 5556 5555 5555 5554 5555 5555 5557 5559
5654 5650 5645 5641 5636 5631 5627 5622 5618 5614 5610 5606 5602 5599 5596 5593 5590 5587 5585 5583 5580 5578 5576 5574 5571 5569 5567 5565 5562 5561 5559 5557 5556 5555 5554 5552 5552 5551 5551 5551 5552 5554 5556
Wind_Speed
14 16 18 19 21 22 23 24 25 25 27 28 29 30 30 30 30 29 29 29 29 30 31 31 31 32 33 34 35 36 38 39 40 42 45 46 46 46 46 46 46 46 46
14 16 18 20 22 23 24 25 26 27 28 29 30 31 31 31 31 30 30 30 30 30 30 31 31 32 33 34 34 35 36 38 39 41 44 46 47 47 48 48 47 46 47
15 17 19 21 23 25 26 27 27 28 29 30 31 31 32 32 31 31 31 30 30 30 31 31 31 31 31 33 34 35 36 37 38 38 41 45 46 48 48 49 49 48 47
17 18 20 22 24 26 27 29 29 30 31 32 33 33 33 33 32 32 31 31 31 31 31 30 30 30 30 31 32 33 35 36 37 38 39 41 44 46 47 48 49 49 49
18 19 21 23 25 27 29 30 31 32 33 34 34 34 34 34 33 33 32 32 32 32 31 30 29 29 30 31 31 32 33 35 36 37 38 39 42 44 46 47 49 49 49
19 21 23 25 26 28 30 31 32 33 34 35 35 35 35 35 34 34 33 32 32 31 31 30 29 29 29 29 30 30 31 33 35 36 37 37 39 41 43 45 47 48 48
21 22 24 26 28 29 31 32 33 34 35 36 36 36 36 35 35 34 34 33 32 31 30 30 29 29 28 28 28 29 30 31 32 33 35 36 38 40 41 43 45 47 47
23 24 26 28 29 30 31 33 34 35 35 36 36 36 36 36 35 35 34 33 32 31 30 29 29 28 28 28 27 27 28 29 30 31 32 34 36 39 40 41 43 45 46
24 25 27 28 29 30 32 33 34 35 36 37 37 37 37 36 36 35 34 33 32 31 30 29 28 28 27 27 27 27 27 28 28 29 30 33 34 36 38 40 42 43 45
25 27 28 29 31 32 33 35 36 37 37 37 38 38 38 37 36 36 35 33 32 31 30 29 28 27 27 27 26 26 26 27 28 29 30 31 33 35 37 38 40 42 44
26 27 29 30 31 33 34 36 36 37 37 37 38 38 38 38 37 36 34 32 31 30 29 28 27 27 26 26 26 26 26 27 28 29 30 31 33 34 36 37 39 41 42
28 29 30 31 33 34 35 36 37 38 38 38 38 39 39 38 37 36 34 32 30 30 29 28 27 26 26 26 26 26 26 27 28 28 30 31 33 34 36 38 39 41 42
29 30 31 33 34 35 36 36 37 38 38 38 39 39 39 38 37 35 33 32 30 29 29 28 27 26 26 25 25 25 25 24 25 26 28 30 31 33 36 38 39 40 41
30 32 33 34 35 36 37 37 37 38 39 39 40 40 39 39 37 35 33 32 30 29 28 27 27 26 25 24 24 24 23 23 23 24 25 27 29 31 34 36 38 40 41
32 33 34 35 36 37 37 38 39 39 39 39 40 40 39 38 37 36 34 32 31 29 28 27 26 26 25 24 23 22 22 21 21 22 23 25 27 29 32 34 37 39 40
33 34 35 36 37 37 38 39 40 40 39 40 40 40 39 38 37 35 34 32 30 28 27 27 26 25 24 23 22 21 21 21 20 21 22 23 25 27 29 31 34 37 39
34 35 36 37 37 38 39 39 39 40 40 40 40 40 39 38 36 35 33 31 29 28 27 26 25 24 23 22 21 20 19 19 19 19 20 21 23 24 27 29 31 34 37
35 35 36 37 38 39 39 40 40 41 40 40 40 39 38 37 36 35 33 30 28 27 26 25 24 23 23 21 19 18 17 17 17 17 17 18 20 21 24 26 28 31 34
36 37 37 38 39 40 40 41 41 41 41 41 40 39 38 37 36 34 32 29 28 26 25 24 23 22 21 20 19 18 17 16 15 15 15 16 17 19 21 23 25 28 30
37 38 39 40 40 40 41 41 42 41 41 41 40 40 39 37 35 33 31 28 26 25 24 23 22 22 21 20 19 17 16 15 15 13 12 13 14 15 18 20 22 25 27
39 40 41 41 41 42 42 42 42 42 42 41 41 39 38 36 34 32 30 28 26 25 23 22 22 21 21 20 19 17 16 15 14 12 11 11 12 13 15 17 20 23 25
40 41 42 42 43 43 43 43 43 42 42 41 40 38 37 34 32 30 28 27 25 24 23 22 21 21 20 19 18 17 16 15 13 11 11 11 11 12 14 16 18 21 23
42 42 43 43 44 44 44 43 43 43 42 40 38 36 35 32 31 29 27 26 25 23 22 21 21 20 19 18 17 16 15 14 12 12 11 11 11 11 13 14 17 19 21
44 44 44 45 45 45 44 44 43 42 40 38 37 35 33 31 30 28 26 25 24 22 22 21 20 19 17 17 16 16 14 13 11 11 11 11 10 10 11 12 15 17 19
45 45 45 45 45 44 44 43 42 40 39 37 35 34 32 31 29 28 27 25 23 22 21 20 19 18 17 17 16 15 14 13 12 11 10 11 10 10 10 11 13 16 18
46 46 46 46 45 44 43 42 41 39 38 36 35 33 31 30 29 27 26 24 22 21 20 19 19 18 17 16 15 14 13 12 11 10 10 10 10 10 10 11 12 14 17
Wind_Direction
351 349 348 347 345 344 343 341 338 335 333 331 329 326 324 321 319 315 311 306 301 296 292 287 283 278 273 269 266 262 258 255 251 248 247 246 243 241 238 237 236 234 233
345 345 345 344 344 343 341 339 337 335 333 331 329 327 325 323 320 316 313 309 305 301 296 291 286 281 276 272 268 264 261 257 253 250 247 246 244 241 238 236 235 234 232
339 339 340 341 340 340 339 338 336 334 332 331 330 329 326 324 321 318 314 310 307 304 299 294 289 285 280 275 270 266 263 260 256 252 248 246 244 241 238 235 233 233 233
334 334 335 336 336 336 335 335 335 334 332 331 330 329 327 325 322 319 316 312 309 306 302 297 291 286 282 278 273 268 264 261 257 253 249 245 243 241 239 236 233 232 232
329 329 330 331 332 332 332 332 332 332 332 331 330 329 327 325 323 320 317 314 311 307 303 298 294 288 284 280 275 270 266 261 257 254 250 246 242 240 238 235 233 231 231
324 325 325 326 328 330 331 330 330 330 330 330 329 328 327 326 323 320 318 315 312 309 305 301 297 292 287 283 278 273 268 263 258 254 250 246 242 240 237 235 233 231 231
320 320 321 323 325 327 328 328 329 329 329 329 329 328 327 325 324 322 319 316 313 310 306 302 297 294 290 285 281 276 270 263 258 254 249 246 243 240 237 234 232 230 230
318 319 321 322 324 325 326 328 329 329 329 329 329 328 327 325 325 323 321 319 315 311 307 303 299 295 291 287 282 277 272 265 259 254 250 246 244 242 239 236 233 230 229
317 318 320 322 324 324 325 327 328 328 328 328 328 328 328 326 325 324 322 320 317 314 310 305 301 296 292 289 285 279 273 267 261 256 252 248 245 242 239 237 234 231 230
315 316 319 321 322 323 324 325 326 327 327 327 327 327 328 327 325 324 323 320 317 315 311 307 304 300 294 291 287 282 274 268 264 259 254 249 245 241 239 237 234 232 231
314 316 318 319 321 322 323 324 326 326 326 326 327 327 327 327 325 324 323 320 319 316 313 309 307 304 299 296 291 286 279 271 265 260 256 250 246 242 239 236 233 231 229
312 315 316 317 317 319 321 322 324 325 325 325 326 327 327 327 325 324 322 321 320 318 315 311 309 307 303 299 293 289 283 275 268 262 257 252 247 243 240 238 235 232 229
310 312 314 315 317 318 320 321 322 323 324 324 325 326 326 326 325 324 322 321 319 318 316 313 310 308 306 302 296 291 286 280 271 263 258 253 249 245 240 238 236 233 230
309 311 313 314 316 317 318 320 321 322 323 323 324 325 325 325 325 323 322 321 320 318 316 315 313 311 308 304 299 294 289 282 274 266 259 255 251 246 242 239 236 234 231
308 310 311 313 314 316 317 319 320 321 322 323 324 324 324 325 325 323 322 320 320 319 317 316 314 313 310 307 303 298 292 285 278 270 262 258 253 247 243 241 237 234 231
307 310 312 313 314 314 316 318 319 320 321 321 323 323 324 324 324 323 322 320 319 319 318 316 315 313 311 308 305 301 296 289 282 274 267 260 254 248 242 240 237 233 231
306 308 310 312 313 314 314 316 317 318 320 321 321 323 323 323 323 323 322 320 319 319 319 318 317 315 315 313 310 306 301 293 286 279 270 262 255 248 241 239 236 233 230
305 308 310 311 313 313 314 315 315 316 318 319 319 320 322 322 322 321 320 319 318 320 320 319 318 317 317 316 314 311 307 301 292 284 275 265 257 249 243 238 235 232 229
305 307 309 310 311 312 312 313 314 315 316 317 317 318 319 320 320 320 319 317 317 319 319 318 317 317 317 317 316 312 309 305 299 291 280 268 260 252 245 239 235 230 227
304 306 308 308 309 310 310 311 312 313 314 315 315 316 316 317 318 318 317 316 316 316 317 316 316 316 316 316 315 312 309 306 300 295 286 275 266 255 246 240 234 230 226
303 305 306 307 307 308 309 310 310 311 312 312 313 314 314 314 315 315 314 314 314 314 314 313 313 314 314 313 312 311 308 304 298 290 285 278 269 258 247 240 233 228 224
302 303 304 304 305 306 307 308 308 309 309 310 310 311 311 312 313 313 312 311 311 311 311 311 310 311 312 310 308 309 307 302 295 289 283 277 271 261 251 243 235 228 225
301 301 302 303 304 304 305 305 305 306 307 307 308 308 308 308 309 309 309 309 307 307 309 309 308 308 309 309 308 309 308 302 292 284 283 279 274 264 252 243 236 231 228
299 300 300 301 302 302 302 303 303 304 305 305 305 305 305 304 304 304 304 305 304 304 306 308 307 307 306 306 307 308 306 301 292 285 282 277 271 265 257 246 236 229 225
298 298 299 300 300 300 301 301 302 302 302 303 303 302 301 301 300 299 299 300 300 300 303 305 305 305 304 303 303 304 304 300 293 288 285 279 269 264 258 246 235 228 223
297 297 298 298 298 299 299 299 300 300 300 300 300 299 298 298 296 296 296 296 296 298 300 301 301 301 302 302 301 300 301 299 293 287 286 283 270 260 256 245 232 223 221